Retour au catalogue

KUIPER-00137

ActifCommunicationsLEO
NORAD 65963·PAYLOAD·🇺🇸 United States

Lancé Oct 14, 2025 depuis Cape Canaveral Space Force Station

Loading…

Prochains Passages (prochaines 24 heures)

TLE

FraisSource: CelesTrak SupGP

Époque: Sep 14, 2026, 22:27 UTC

1 65963C 25228S   26257.93550926  .00000718  00000+0  94057-4 0  2570
2 65963  51.9020 228.8192 0000859  43.9596 344.7399 14.79924614    15

Suivez KUIPER-00137 en temps réel avec AllMySat

Download on the App Store